Track STARLINK-2502 now! 10-day predictions STARLINK-2502 is classified as:
1 48327U 21036BD 22185.23878203 -.00002508 00000-0 -14958-3 0 9994 2 48327 53.0573 17.0942 0001594 65.0379 295.0775 15.06390917 65390